Location: Étavigny
(49.1201°N, 2.9800°E)
Time: 05:34:11
(UTC+00:00)

Cosmos 2278 - Pass Details

Date: 28 January 2023
Orbit: 838 x 853 km, 71.1° (Epoch: 30 March)

Event Time Altitude Azimuth Distance (km) Brightness Sun altitude
Rises 17:40:07 0° 175° (S) 3,382 7.0 -10.3°
Reaches altitude 10° 17:42:47 10° 165° (SSE) 2,455 6.1 -10.7°
Maximum altitude 17:47:40 31° 105° (ESE) 1,441 4.5 -11.5°
Enters shadow 17:52:04 12° 48° (NE) 2,312 5.5 -12.2°
